| time (UTC) | temp F | wind direction | speed MPH | gust MPH | rain 1hr in | rain 24hr in | rain mn in | humidity % | barometer mb |
| 20260509030519 | 58 | 175 | 1.0 | 3.0 | 0.00 | 0.00 | 0.00 | 73 | 1014.5 |
| 20260509025519 | 58 | 261 | 1.0 | 3.0 | 0.00 | 0.00 | 0.00 | 74 | 1014.4 |
| 20260509024516 | 58 | 195 | 1.0 | 3.0 | 0.00 | 0.00 | 0.00 | 75 | 1014.4 |
| 20260509023516 | 58 | 47 | 1.0 | 2.0 | 0.00 | 0.00 | 0.00 | 76 | 1014.4 |
| 20260509022516 | 58 | 231 | 1.0 | 3.0 | 0.00 | 0.00 | 0.00 | 76 | 1014.5 |
| 20260509021516 | 58 | 179 | 1.0 | 3.0 | 0.00 | 0.00 | 0.00 | 75 | 1014.4 |
| 20260509020516 | 58 | 175 | 1.0 | 3.0 | 0.00 | 0.00 | 0.00 | 75 | 1014.4 |
| 20260509015517 | 58 | 234 | 1.0 | 4.0 | 0.00 | 0.00 | 0.00 | 76 | 1014.4 |
| 20260509014537 | 58 | 203 | 1.0 | 3.0 | 0.00 | 0.00 | 0.00 | 77 | 1014.4 |
| 20260509013516 | 58 | 323 | 1.0 | 3.0 | 0.00 | 0.00 | 0.00 | 77 | 1014.4 |
| 20260509012517 | 59 | 239 | 1.0 | 3.0 | 0.00 | 0.00 | 0.00 | 77 | 1014.3 |
| 20260509011517 | 59 | 127 | 1.0 | 4.0 | 0.00 | 0.00 | 0.00 | 76 | 1014.1 |
| 20260509010517 | 59 | 196 | 1.0 | 3.0 | 0.00 | 0.00 | 0.00 | 74 | 1014.1 |
| 20260509005517 | 59 | 190 | 1.0 | 3.0 | 0.00 | 0.00 | 0.00 | 73 | 1013.9 |
| 20260509004517 | 59 | 148 | 1.0 | 3.0 | 0.00 | 0.00 | 0.00 | 71 | 1013.7 |
| 20260509003518 | 59 | 214 | 1.0 | 2.0 | 0.00 | 0.00 | 0.00 | 72 | 1013.7 |
| 20260509002518 | 59 | 229 | 1.0 | 3.0 | 0.00 | 0.00 | 0.00 | 73 | 1013.7 |
| 20260509001518 | 59 | 279 | 1.0 | 3.0 | 0.00 | 0.00 | 0.00 | 73 | 1013.7 |
| 20260509000518 | 60 | 245 | 1.0 | 3.0 | 0.00 | 0.00 | 0.00 | 73 | 1013.6 |
| 20260508235518 | 61 | 176 | 1.0 | 2.0 | 0.00 | 0.00 | 0.00 | 70 | 1013.6 |
| 20260508234539 | 62 | 16 | 1.0 | 2.0 | 0.00 | 0.00 | 0.00 | 64 | 1013.4 |
| 20260508233536 | 62 | 12 | 1.0 | 2.0 | 0.00 | 0.00 | 0.00 | 65 | 1013.3 |
| 20260508232515 | 62 | 357 | 1.0 | 2.0 | 0.00 | 0.00 | 0.00 | 64 | 1013.2 |
| 20260508231516 | 62 | 346 | 1.0 | 2.0 | 0.00 | 0.00 | 0.00 | 65 | 1013.1 |
| 20260508230536 | 62 | 328 | 1.0 | 2.0 | 0.00 | 0.00 | 0.00 | 65 | 1013.0 |
| 20260508225556 | 62 | 345 | 1.0 | 2.0 | 0.00 | 0.00 | 0.00 | 62 | 1013.0 |
| 20260508224516 | 62 | 307 | 1.0 | 2.0 | 0.00 | 0.00 | 0.00 | 65 | 1013.0 |
| 20260508223516 | 61 | 330 | 0.0 | 2.0 | 0.00 | 0.00 | 0.00 | 64 | 1012.9 |
| 20260508222517 | 60 | 219 | 0.0 | 2.0 | 0.00 | 0.00 | 0.00 | 73 | 1013.0 |
| 20260508221517 | 60 | 205 | 0.0 | 2.0 | 0.00 | 0.00 | 0.00 | 70 | 1012.9 |
| 20260508220517 | 60 | 185 | 1.0 | 3.0 | 0.00 | 0.00 | 0.00 | 72 | 1012.9 |
| 20260508215517 | 59 | 206 | 1.0 | 4.0 | 0.00 | 0.00 | 0.00 | 72 | 1012.9 |
| 20260508214538 | 59 | 196 | 1.0 | 6.0 | 0.00 | 0.00 | 0.00 | 70 | 1012.9 |
| 20260508213517 | 59 | 176 | 1.0 | 4.0 | 0.00 | 0.00 | 0.00 | 68 | 1013.0 |
| 20260508212518 | 59 | 174 | 2.0 | 4.0 | 0.00 | 0.00 | 0.00 | 68 | 1013.1 |
| 20260508211519 | 59 | 176 | 2.0 | 7.0 | 0.00 | 0.01 | 0.00 | 66 | 1013.2 |
| 20260508210519 | 59 | 161 | 2.0 | 4.0 | 0.00 | 0.01 | 0.00 | 65 | 1013.2 |
| 20260508205518 | 60 | 146 | 1.0 | 4.0 | 0.00 | 0.02 | 0.00 | 64 | 1013.4 |
| 20260508204516 | 60 | 165 | 2.0 | 5.0 | 0.00 | 0.03 | 0.00 | 62 | 1013.5 |
| 20260508203516 | 60 | 178 | 1.0 | 4.0 | 0.00 | 0.03 | 0.00 | 61 | 1013.6 |
| 20260508202516 | 60 | 172 | 1.0 | 4.0 | 0.00 | 0.03 | 0.00 | 59 | 1013.6 |
| 20260508201516 | 60 | 234 | 1.0 | 3.0 | 0.00 | 0.03 | 0.00 | 61 | 1013.7 |
| 20260508200516 | 60 | 232 | 1.0 | 5.0 | 0.00 | 0.03 | 0.00 | 62 | 1013.9 |
| 20260508195516 | 61 | 196 | 1.0 | 3.0 | 0.00 | 0.05 | 0.00 | 64 | 1013.9 |
| 20260508194517 | 61 | 216 | 1.0 | 4.0 | 0.00 | 0.07 | 0.00 | 59 | 1014.0 |
| 20260508193517 | 61 | 205 | 1.0 | 4.0 | 0.00 | 0.07 | 0.00 | 58 | 1014.2 |
| 20260508192558 | 61 | 235 | 1.0 | 5.0 | 0.00 | 0.08 | 0.00 | 56 | 1014.3 |
| 20260508191517 | 61 | 210 | 2.0 | 4.0 | 0.00 | 0.08 | 0.00 | 56 | 1014.4 |
| 20260508190517 | 61 | 222 | 1.0 | 4.0 | 0.00 | 0.11 | 0.00 | 57 | 1014.3 |
| 20260508185518 | 62 | 205 | 2.0 | 6.0 | 0.00 | 0.14 | 0.00 | 53 | 1014.5 |
| 20260508184518 | 63 | 181 | 1.0 | 3.0 | 0.00 | 0.16 | 0.00 | 58 | 1014.6 |
| 20260508183518 | 63 | 183 | 1.0 | 7.0 | 0.00 | 0.16 | 0.00 | 56 | 1014.4 |
| 20260508182519 | 63 | 188 | 1.0 | 4.0 | 0.00 | 0.17 | 0.00 | 58 | 1014.4 |
| 20260508181518 | 64 | 218 | 1.0 | 6.0 | 0.00 | 0.17 | 0.00 | 56 | 1014.4 |
| 20260508180518 | 63 | 114 | 1.0 | 4.0 | 0.00 | 0.17 | 0.00 | 56 | 1014.6 |
| 20260508175559 | 63 | 56 | 1.0 | 3.0 | 0.00 | 0.18 | 0.00 | 56 | 1014.8 |
| 20260508174536 | 63 | 47 | 1.0 | 3.0 | 0.00 | 0.18 | 0.00 | 54 | 1014.8 |
| 20260508173516 | 64 | 50 | 1.0 | 3.0 | 0.00 | 0.18 | 0.00 | 54 | 1014.8 |
| 20260508172519 | 64 | 174 | 1.0 | 5.0 | 0.00 | 0.18 | 0.00 | 52 | 1014.9 |
| 20260508171536 | 64 | 349 | 1.0 | 4.0 | 0.00 | 0.18 | 0.00 | 51 | 1015.1 |
| 20260508170516 | 65 | 307 | 1.0 | 3.0 | 0.00 | 0.18 | 0.00 | 46 | 1015.0 |
| 20260508165516 | 66 | 277 | 2.0 | 5.0 | 0.00 | 0.18 | 0.00 | 46 | 1015.2 |
| 20260508164537 | 66 | 32 | 1.0 | 3.0 | 0.00 | 0.18 | 0.00 | 45 | 1015.3 |
| 20260508163516 | 66 | 53 | 1.0 | 4.0 | 0.00 | 0.18 | 0.00 | 46 | 1015.4 |
| 20260508162537 | 67 | 46 | 1.0 | 4.0 | 0.00 | 0.18 | 0.00 | 44 | 1015.5 |
| 20260508161517 | 69 | 25 | 1.0 | 3.0 | 0.00 | 0.18 | 0.00 | 42 | 1015.5 |
| 20260508160537 | 68 | 13 | 1.0 | 3.0 | 0.00 | 0.18 | 0.00 | 44 | 1015.6 |
| 20260508155517 | 69 | 29 | 1.0 | 3.0 | 0.00 | 0.18 | 0.00 | 42 | 1015.7 |
| 20260508154517 | 69 | 20 | 1.0 | 3.0 | 0.00 | 0.18 | 0.00 | 45 | 1015.7 |
| 20260508153517 | 69 | 35 | 2.0 | 4.0 | 0.00 | 0.18 | 0.00 | 43 | 1015.8 |
| 20260508152518 | 69 | 20 | 1.0 | 3.0 | 0.00 | 0.18 | 0.00 | 42 | 1015.8 |
| 20260508151518 | 69 | 26 | 1.0 | 3.0 | 0.00 | 0.18 | 0.00 | 43 | 1016.0 |
| 20260508150519 | 70 | 31 | 1.0 | 4.0 | 0.00 | 0.18 | 0.00 | 42 | 1016.1 |
| 20260508145518 | 70 | 36 | 1.0 | 4.0 | 0.00 | 0.18 | 0.00 | 43 | 1016.1 |
| 20260508144515 | 70 | 28 | 1.0 | 3.0 | 0.00 | 0.18 | 0.00 | 41 | 1016.2 |
| 20260508143516 | 70 | 38 | 1.0 | 4.0 | 0.00 | 0.18 | 0.00 | 43 | 1016.2 |
| 20260508142516 | 69 | 32 | 1.0 | 3.0 | 0.00 | 0.18 | 0.00 | 43 | 1016.2 |
| 20260508141516 | 68 | 46 | 1.0 | 4.0 | 0.00 | 0.18 | 0.00 | 46 | 1016.1 |
| 20260508140516 | 67 | 44 | 1.0 | 4.0 | 0.00 | 0.18 | 0.00 | 46 | 1016.1 |
| 20260508135516 | 66 | 33 | 1.0 | 3.0 | 0.00 | 0.18 | 0.00 | 47 | 1016.0 |
| 20260508134517 | 64 | 358 | 1.0 | 3.0 | 0.00 | 0.18 | 0.00 | 52 | 1015.9 |
| 20260508133516 | 64 | 85 | 1.0 | 3.0 | 0.00 | 0.18 | 0.00 | 51 | 1016.1 |
| 20260508132517 | 64 | 56 | 2.0 | 4.0 | 0.00 | 0.18 | 0.00 | 51 | 1016.0 |
| 20260508131517 | 63 | 41 | 1.0 | 3.0 | 0.00 | 0.18 | 0.00 | 53 | 1016.0 |
| 20260508130517 | 62 | 340 | 0.0 | 3.0 | 0.00 | 0.18 | 0.00 | 53 | 1015.9 |
| 20260508125517 | 61 | 138 | 1.0 | 4.0 | 0.00 | 0.18 | 0.00 | 55 | 1015.9 |
| 20260508124518 | 59 | 113 | 0.0 | 4.0 | 0.00 | 0.18 | 0.00 | 57 | 1015.7 |
| 20260508123600 | 58 | 212 | 0.0 | 1.0 | 0.00 | 0.18 | 0.00 | 62 | 1015.6 |
| 20260508122520 | 57 | 261 | 0.0 | 0.0 | 0.00 | 0.18 | 0.00 | 63 | 1015.7 |
| 20260508121521 | 56 | 182 | 0.0 | 1.0 | 0.00 | 0.18 | 0.00 | 63 | 1015.6 |
| 20260508120521 | 56 | 258 | 0.0 | 1.0 | 0.00 | 0.18 | 0.00 | 65 | 1015.4 |
| 20260508115641 | 55 | 92 | 1.0 | 2.0 | 0.00 | 0.18 | 0.00 | 67 | 1015.3 |
| 20260508114521 | 55 | 54 | 0.0 | 3.0 | 0.00 | 0.18 | 0.00 | 68 | 1015.4 |
| 20260508113542 | 54 | 303 | 0.0 | 1.0 | 0.00 | 0.18 | 0.00 | 68 | 1015.2 |
| 20260508112522 | 54 | 163 | 1.0 | 2.0 | 0.00 | 0.18 | 0.00 | 69 | 1015.0 |
| 20260508111522 | 54 | 209 | 1.0 | 3.0 | 0.00 | 0.18 | 0.00 | 70 | 1014.9 |
| 20260508110522 | 54 | 155 | 0.0 | 1.0 | 0.00 | 0.18 | 0.00 | 69 | 1014.7 |
| 20260508105542 | 53 | 34 | 0.0 | 0.0 | 0.00 | 0.18 | 0.00 | 70 | 1014.5 |
| 20260508104523 | 53 | 138 | 0.0 | 2.0 | 0.00 | 0.18 | 0.00 | 71 | 1014.4 |
| 20260508103523 | 53 | 311 | 1.0 | 3.0 | 0.00 | 0.18 | 0.00 | 72 | 1014.3 |
| 20260508102543 | 53 | 187 | 1.0 | 2.0 | 0.00 | 0.18 | 0.00 | 71 | 1014.2 |
| 20260508101523 | 53 | 258 | 1.0 | 4.0 | 0.00 | 0.18 | 0.00 | 71 | 1014.0 |
| 20260508100524 | 53 | 140 | 0.0 | 2.0 | 0.00 | 0.18 | 0.00 | 73 | 1013.9 |
| 20260508095523 | 54 | 345 | 0.0 | 2.0 | 0.00 | 0.18 | 0.00 | 72 | 1013.7 |
| 20260508094523 | 54 | 156 | 1.0 | 2.0 | 0.00 | 0.18 | 0.00 | 73 | 1013.6 |
| 20260508093524 | 54 | 213 | 1.0 | 2.0 | 0.00 | 0.18 | 0.00 | 71 | 1013.4 |
| 20260508092523 | 55 | 178 | 1.0 | 2.0 | 0.00 | 0.18 | 0.00 | 72 | 1013.3 |
| 20260508091544 | 55 | 191 | 1.0 | 3.0 | 0.00 | 0.18 | 0.00 | 72 | 1013.1 |
| 20260508090524 | 55 | 169 | 1.0 | 3.0 | 0.00 | 0.18 | 0.00 | 73 | 1013.0 |
| 20260508085524 | 55 | 222 | 1.0 | 3.0 | 0.00 | 0.18 | 0.00 | 75 | 1012.8 |
| 20260508084524 | 55 | 234 | 1.0 | 2.0 | 0.00 | 0.18 | 0.00 | 80 | 1012.7 |
| 20260508083525 | 55 | 196 | 1.0 | 4.0 | 0.00 | 0.18 | 0.00 | 80 | 1012.6 |
| 20260508082525 | 54 | 189 | 1.0 | 2.0 | 0.00 | 0.18 | 0.00 | 84 | 1012.4 |
| 20260508081545 | 54 | 218 | 0.0 | 1.0 | 0.00 | 0.18 | 0.00 | 88 | 1012.4 |
| 20260508080525 | 54 | 179 | 0.0 | 2.0 | 0.00 | 0.18 | 0.00 | 88 | 1012.2 |
| 20260508075525 | 54 | 175 | 0.0 | 1.0 | 0.00 | 0.18 | 0.00 | 87 | 1012.0 |
| 20260508074525 | 54 | 207 | 0.0 | 2.0 | 0.00 | 0.18 | 0.00 | 88 | 1011.9 |
| 20260508073526 | 55 | 200 | 0.0 | 1.0 | 0.00 | 0.18 | 0.00 | 87 | 1011.7 |
| 20260508072526 | 55 | 216 | 0.0 | 1.0 | 0.00 | 0.18 | 0.00 | 87 | 1011.5 |
| 20260508071526 | 55 | 205 | 0.0 | 2.0 | 0.00 | 0.18 | 0.00 | 88 | 1011.2 |
| 20260508070526 | 54 | 229 | 0.0 | 2.0 | 0.00 | 0.21 | 0.00 | 86 | 1011.1 |
| 20260508065546 | 54 | 286 | 0.0 | 0.0 | 0.00 | 0.28 | 0.00 | 87 | 1011.0 |
| 20260508064547 | 54 | 261 | 0.0 | 0.0 | 0.00 | 0.28 | 0.00 | 87 | 1011.1 |
| 20260508063527 | 54 | 163 | 0.0 | 1.0 | 0.00 | 0.28 | 0.00 | 86 | 1011.2 |
| 20260508062546 | 53 | 187 | 0.0 | 1.0 | 0.00 | 0.28 | 0.00 | 86 | 1011.2 |
| 20260508061527 | 53 | 183 | 0.0 | 2.0 | 0.00 | 0.28 | 0.00 | 86 | 1011.2 |
| 20260508060527 | 53 | 317 | 0.0 | 1.0 | 0.00 | 0.28 | 0.00 | 87 | 1011.2 |
| 20260508055527 | 53 | 0.0 | 0.0 | 0.00 | 0.28 | 0.00 | 87 | 1011.2 | |
| 20260508054527 | 53 | 148 | 0.0 | 2.0 | 0.00 | 0.28 | 0.00 | 87 | 1011.4 |
| 20260508053528 | 53 | 0.0 | 0.0 | 0.00 | 0.28 | 0.00 | 87 | 1011.4 | |
| 20260508052528 | 52 | 315 | 0.0 | 1.0 | 0.00 | 0.28 | 0.00 | 86 | 1011.4 |
| 20260508051528 | 52 | 0.0 | 0.0 | 0.00 | 0.28 | 0.00 | 86 | 1011.4 | |
| 20260508050548 | 52 | 247 | 0.0 | 0.0 | 0.00 | 0.28 | 0.00 | 86 | 1011.6 |
| 20260508045528 | 53 | 0.0 | 0.0 | 0.00 | 0.28 | 0.00 | 86 | 1011.6 | |
| 20260508044528 | 53 | 0.0 | 0.0 | 0.00 | 0.28 | 0.00 | 86 | 1011.5 | |
| 20260508043528 | 53 | 0.0 | 0.0 | 0.00 | 0.28 | 0.00 | 87 | 1011.5 | |
| 20260508042529 | 53 | 0.0 | 0.0 | 0.00 | 0.28 | 0.00 | 88 | 1011.5 | |
| 20260508041529 | 53 | 306 | 0.0 | 0.0 | 0.00 | 0.28 | 0.00 | 88 | 1011.4 |
| 20260508040529 | 53 | 0.0 | 0.0 | 0.00 | 0.28 | 0.00 | 88 | 1011.3 | |
| 20260508035529 | 53 | 238 | 0.0 | 0.0 | 0.00 | 0.28 | 0.28 | 88 | 1011.3 |
| 20260508034530 | 53 | 0.0 | 0.0 | 0.00 | 0.28 | 0.28 | 89 | 1011.2 | |
| 20260508033529 | 53 | 314 | 0.0 | 0.0 | 0.00 | 0.28 | 0.28 | 90 | 1011.2 |
| 20260508032530 | 53 | 0.0 | 0.0 | 0.00 | 0.28 | 0.28 | 90 | 1011.3 | |
| 20260508031530 | 53 | 0.0 | 0.0 | 0.00 | 0.28 | 0.28 | 90 | 1011.4 |